AEZ4104 LIML-LIEO

Flight info

Callsign AEZ4104
Flight time 1h 2m
Altitude 37000
Route ITCAP DCT OTMUV DCT UNITA DCT OLETI DCT TORTU DCT OKROK DCT AJO DCT CORSI
Aircraft A319/M-SDE3FGHIRWY/LB1

Departure

Time 2026-05-04 09:09
Airport Milano Linate Airport (LIML)

Arrival

Time 2026-05-04 10:11
Airport Olbia Costa Smeralda Airport (LIEO)
Time Latitude Longitude Altitude Speed Heading
2026-05-04 08:35 45.45773 9.27900 362 ft 0 kts 89°
2026-05-04 09:01 45.45005 9.27889 358 ft 9 kts 175°
2026-05-04 09:01 45.44941 9.27902 357 ft 9 kts 165°
2026-05-04 09:01 45.44900 9.27918 357 ft 4 kts 163°
2026-05-04 09:01 45.44866 9.27933 357 ft 6 kts 165°
2026-05-04 09:02 45.44817 9.27943 357 ft 7 kts 175°
2026-05-04 09:02 45.44754 9.27950 356 ft 10 kts 175°
2026-05-04 09:02 45.44671 9.27958 355 ft 13 kts 175°
2026-05-04 09:02 45.44576 9.27967 354 ft 13 kts 175°
2026-05-04 09:03 45.44500 9.27977 354 ft 11 kts 175°
2026-05-04 09:03 45.44410 9.27986 353 ft 14 kts 176°
2026-05-04 09:03 45.44318 9.27996 352 ft 13 kts 175°
2026-05-04 09:03 45.44230 9.28007 351 ft 12 kts 175°
2026-05-04 09:04 45.44146 9.28015 350 ft 12 kts 176°
2026-05-04 09:04 45.44053 9.28025 349 ft 14 kts 175°
2026-05-04 09:04 45.43948 9.28036 348 ft 15 kts 176°
2026-05-04 09:04 45.43832 9.28049 347 ft 17 kts 176°
2026-05-04 09:05 45.43733 9.28059 346 ft 12 kts 175°
2026-05-04 09:05 45.43652 9.28068 346 ft 10 kts 174°
2026-05-04 09:05 45.43583 9.28078 345 ft 8 kts 174°
2026-05-04 09:05 45.43551 9.28082 345 ft 0 kts 172°
2026-05-04 09:06 45.43547 9.28083 345 ft 1 kts 172°
2026-05-04 09:07 45.43455 9.27834 344 ft 9 kts 321°
2026-05-04 09:08 45.43484 9.27815 345 ft 0 kts 358°
2026-05-04 09:08 45.43499 9.27814 345 ft 10 kts 357°
2026-05-04 09:08 45.43842 9.27776 348 ft 85 kts 354°
2026-05-04 09:09 45.44648 9.27688 356 ft 146 kts 355°
2026-05-04 09:09 45.45790 9.27586 572 ft 176 kts 354°
2026-05-04 09:09 45.47011 9.27523 1226 ft 177 kts
2026-05-04 09:09 45.48035 9.28381 1968 ft 175 kts 54°
2026-05-04 09:10 45.48445 9.29997 2551 ft 182 kts 88°
2026-05-04 09:10 45.48190 9.31767 3099 ft 192 kts 118°
2026-05-04 09:10 45.47324 9.33055 3550 ft 205 kts 144°
2026-05-04 09:10 45.46150 9.34324 4041 ft 221 kts 140°
2026-05-04 09:11 45.44939 9.35815 4492 ft 242 kts 145°
2026-05-04 09:11 45.43370 9.36698 5134 ft 252 kts 173°
2026-05-04 09:11 45.41575 9.36800 5736 ft 266 kts 174°
2026-05-04 09:11 45.39802 9.37599 6556 ft 270 kts 150°
2026-05-04 09:12 45.38197 9.38926 7453 ft 271 kts 156°
2026-05-04 09:12 45.36378 9.39466 8305 ft 272 kts 177°
2026-05-04 09:14 45.24936 9.51487 12156 ft 350 kts 143°
2026-05-04 09:14 45.23001 9.53672 12565 ft 360 kts 144°
2026-05-04 09:14 45.20884 9.55588 13141 ft 360 kts 160°
2026-05-04 09:14 45.18440 9.56328 13774 ft 359 kts 180°
2026-05-04 09:15 45.16001 9.55886 14425 ft 360 kts 194°
2026-05-04 09:15 45.13520 9.55237 14999 ft 366 kts 183°
2026-05-04 09:15 45.10976 9.55692 15539 ft 374 kts 164°
2026-05-04 09:15 45.08656 9.57314 16116 ft 381 kts 147°
2026-05-04 09:17 44.89992 9.73485 20213 ft 407 kts 156°
2026-05-04 09:18 44.87380 9.75203 20688 ft 411 kts 156°
2026-05-04 09:18 44.84776 9.76904 21142 ft 414 kts 157°
2026-05-04 09:18 44.82159 9.78606 21574 ft 418 kts 156°
2026-05-04 09:18 44.79531 9.80317 22023 ft 421 kts 156°
2026-05-04 09:19 44.76827 9.82048 22467 ft 423 kts 159°
2026-05-04 09:19 44.73997 9.83033 22829 ft 423 kts 177°
2026-05-04 09:19 44.71055 9.82750 23251 ft 423 kts 194°
2026-05-04 09:19 44.68334 9.81293 23656 ft 424 kts 210°
2026-05-04 09:20 44.66002 9.78764 24066 ft 426 kts 226°
2026-05-04 09:20 44.64272 9.75347 24462 ft 429 kts 242°
2026-05-04 09:20 44.63035 9.71535 24896 ft 431 kts 245°
2026-05-04 09:20 44.61823 9.67714 25280 ft 433 kts 245°
2026-05-04 09:21 44.60592 9.63853 25672 ft 435 kts 245°
2026-05-04 09:21 44.59347 9.59977 26048 ft 437 kts 245°
2026-05-04 09:21 44.58084 9.56060 26404 ft 439 kts 245°
2026-05-04 09:21 44.56827 9.52176 26763 ft 441 kts 245°
2026-05-04 09:22 44.55543 9.48218 27102 ft 443 kts 245°
2026-05-04 09:22 44.54282 9.44335 27432 ft 444 kts 245°
2026-05-04 09:22 44.52998 9.40393 27873 ft 443 kts 245°
2026-05-04 09:22 44.51726 9.36494 28386 ft 439 kts 245°
2026-05-04 09:23 44.50456 9.32612 28838 ft 438 kts 245°
2026-05-04 09:23 44.49178 9.28709 29240 ft 437 kts 244°
2026-05-04 09:23 44.47921 9.24877 29646 ft 436 kts 244°
2026-05-04 09:23 44.46634 9.21035 30073 ft 435 kts 242°
2026-05-04 09:25 44.29467 9.06666 32747 ft 433 kts 187°
2026-05-04 09:25 44.26443 9.06303 33124 ft 432 kts 187°
2026-05-04 09:26 44.23478 9.05955 33499 ft 430 kts 187°
2026-05-04 09:26 44.20513 9.05600 33848 ft 429 kts 187°
2026-05-04 09:26 44.17555 9.05244 34167 ft 428 kts 187°
2026-05-04 09:26 44.14565 9.04887 34476 ft 428 kts 187°
2026-05-04 09:27 44.11628 9.04538 34738 ft 427 kts 187°
2026-05-04 09:27 44.08662 9.04185 34950 ft 427 kts 187°
2026-05-04 09:27 44.05729 9.03838 35158 ft 427 kts 187°
2026-05-04 09:27 44.02785 9.03488 35356 ft 427 kts 187°
2026-05-04 09:28 43.99827 9.03138 35503 ft 428 kts 188°
2026-05-04 09:28 43.96824 9.02783 35663 ft 430 kts 188°
2026-05-04 09:28 43.93856 9.02430 35811 ft 430 kts 188°
2026-05-04 09:28 43.90877 9.02071 35950 ft 431 kts 188°
2026-05-04 09:29 43.87878 9.01702 36092 ft 432 kts 188°
2026-05-04 09:29 43.84888 9.01336 36217 ft 433 kts 188°
2026-05-04 09:29 43.81896 9.00972 36349 ft 434 kts 189°
2026-05-04 09:29 43.78898 9.00608 36465 ft 434 kts 189°
2026-05-04 09:30 43.75896 9.00247 36603 ft 435 kts 189°
2026-05-04 09:30 43.72866 8.99885 36765 ft 436 kts 189°
2026-05-04 09:30 43.69848 8.99523 36909 ft 436 kts 189°
2026-05-04 09:30 43.66817 8.99161 37033 ft 437 kts 189°
2026-05-04 09:31 43.60767 8.98437 37087 ft 439 kts 189°
2026-05-04 09:31 43.54689 8.97714 37082 ft 439 kts 189°
2026-05-04 09:32 43.48632 8.96993 37078 ft 439 kts 189°
2026-05-04 09:34 43.24284 8.94139 37062 ft 440 kts 190°
2026-05-04 09:34 43.18164 8.93431 37058 ft 441 kts 190°
2026-05-04 09:35 43.12046 8.92725 37060 ft 441 kts 190°
2026-05-04 09:35 43.05916 8.92017 37055 ft 440 kts 190°
2026-05-04 09:37 42.81305 8.89195 37049 ft 442 kts 191°
2026-05-04 09:38 42.75151 8.88491 37046 ft 442 kts 191°
2026-05-04 09:38 42.68972 8.87785 37052 ft 442 kts 191°
2026-05-04 09:39 42.62846 8.87086 37063 ft 442 kts 191°
2026-05-04 09:39 42.56685 8.86387 37072 ft 441 kts 191°
2026-05-04 09:40 42.50563 8.85692 37339 ft 443 kts 191°
2026-05-04 09:40 42.47499 8.85346 37169 ft 442 kts 191°
2026-05-04 09:40 42.44435 8.84999 37118 ft 441 kts 191°
2026-05-04 09:42 42.20040 8.82252 37082 ft 441 kts 192°
2026-05-04 09:43 42.13908 8.81564 37081 ft 442 kts 192°
2026-05-04 09:43 42.10853 8.81220 36851 ft 443 kts 192°
2026-05-04 09:43 42.07769 8.80874 36098 ft 444 kts 191°
2026-05-04 09:44 42.04723 8.80532 35381 ft 444 kts 191°
2026-05-04 09:44 42.01658 8.80192 34691 ft 443 kts 191°
2026-05-04 09:44 41.98592 8.79850 34011 ft 441 kts 191°
2026-05-04 09:46 41.79436 8.77764 29434 ft 441 kts 189°
2026-05-04 09:46 41.76365 8.77657 28655 ft 445 kts 186°
2026-05-04 09:46 41.73275 8.77769 27881 ft 447 kts 182°
2026-05-04 09:47 41.70184 8.78037 27128 ft 447 kts 181°
2026-05-04 09:47 41.67072 8.78309 26630 ft 446 kts 181°
2026-05-04 09:49 41.46144 8.80124 22988 ft 417 kts 180°
2026-05-04 09:49 41.43284 8.80371 22474 ft 413 kts 180°
2026-05-04 09:49 41.40426 8.80616 21965 ft 410 kts 180°
2026-05-04 09:51 41.25205 8.89066 18895 ft 403 kts 146°
2026-05-04 09:51 41.22968 8.91287 18377 ft 400 kts 146°
2026-05-04 09:51 41.20745 8.93478 17897 ft 398 kts 146°
2026-05-04 09:51 41.18576 8.95603 17409 ft 395 kts 146°
2026-05-04 09:52 41.16329 8.97791 16901 ft 393 kts 146°
2026-05-04 09:52 41.14132 8.99927 16401 ft 392 kts 146°
2026-05-04 09:52 41.11931 9.02062 15894 ft 390 kts 147°
2026-05-04 09:52 41.09727 9.04125 15364 ft 389 kts 148°
2026-05-04 09:53 41.07487 9.06179 14867 ft 388 kts 148°
2026-05-04 09:53 41.05283 9.08199 14354 ft 386 kts 148°
2026-05-04 09:53 41.03098 9.10290 13826 ft 387 kts 141°
2026-05-04 09:53 41.01449 9.13104 13288 ft 391 kts 117°
2026-05-04 09:54 41.00818 9.16539 12840 ft 389 kts 90°
2026-05-04 09:54 41.01366 9.20034 12820 ft 391 kts 65°
2026-05-04 09:54 41.02836 9.23074 12829 ft 389 kts 51°
2026-05-04 09:54 41.04469 9.25892 12863 ft 390 kts 52°
2026-05-04 09:55 41.06066 9.28804 12929 ft 387 kts 57°
2026-05-04 09:55 41.07071 9.31989 12978 ft 369 kts 81°
2026-05-04 09:55 41.06942 9.35277 12997 ft 348 kts 109°
2026-05-04 09:55 41.05782 9.37934 13005 ft 323 kts 139°
2026-05-04 09:56 41.03945 9.39409 13007 ft 295 kts 170°
2026-05-04 09:56 41.01979 9.39775 13050 ft 280 kts 176°
2026-05-04 09:56 41.00064 9.39957 13062 ft 275 kts 189°
2026-05-04 09:56 40.98219 9.39440 13058 ft 269 kts 207°
2026-05-04 09:57 40.96685 9.38090 13050 ft 263 kts 230°
2026-05-04 09:57 40.95619 9.36156 13071 ft 261 kts 240°
2026-05-04 09:57 40.94624 9.34125 13072 ft 262 kts 238°
2026-05-04 09:57 40.93619 9.32130 13082 ft 262 kts 238°
2026-05-04 09:58 40.92585 9.30134 13077 ft 262 kts 238°
2026-05-04 09:58 40.91559 9.28155 13076 ft 262 kts 237°
2026-05-04 09:58 40.90533 9.26181 13076 ft 262 kts 236°
2026-05-04 10:00 40.83367 9.12614 11861 ft 248 kts 237°
2026-05-04 10:00 40.82385 9.10750 11516 ft 247 kts 237°
2026-05-04 10:02 40.75503 8.98325 9340 ft 238 kts 212°
2026-05-04 10:04 40.66002 9.05882 7415 ft 250 kts 92°
2026-05-04 10:04 40.66453 9.08085 7141 ft 250 kts 56°
2026-05-04 10:04 40.67516 9.09881 6883 ft 249 kts 48°
2026-05-04 10:04 40.68630 9.11596 6609 ft 247 kts 49°
2026-05-04 10:05 40.69717 9.13374 6343 ft 246 kts 52°
2026-05-04 10:05 40.70739 9.15159 6083 ft 245 kts 53°
2026-05-04 10:05 40.71742 9.16987 5848 ft 242 kts 54°
2026-05-04 10:05 40.72709 9.18801 5647 ft 243 kts 56°
2026-05-04 10:06 40.73666 9.20631 5444 ft 240 kts 56°
2026-05-04 10:06 40.74603 9.22430 5285 ft 239 kts 56°
2026-05-04 10:06 40.75553 9.24270 5046 ft 244 kts 56°
2026-05-04 10:08 40.81242 9.35236 3222 ft 226 kts 57°
2026-05-04 10:08 40.82116 9.36911 2874 ft 215 kts 58°
2026-05-04 10:08 40.82944 9.38496 2582 ft 204 kts 59°
2026-05-04 10:08 40.83714 9.39970 2319 ft 192 kts 59°
2026-05-04 10:09 40.84447 9.41373 2025 ft 181 kts 59°
2026-05-04 10:09 40.85136 9.42692 1740 ft 168 kts 60°
2026-05-04 10:09 40.85775 9.43916 1463 ft 155 kts 58°
2026-05-04 10:09 40.86367 9.45053 1213 ft 143 kts 58°
2026-05-04 10:10 40.86907 9.46090 1009 ft 135 kts 58°
2026-05-04 10:10 40.87434 9.47104 827 ft 135 kts 57°
2026-05-04 10:10 40.87970 9.48129 624 ft 134 kts 57°
2026-05-04 10:10 40.88497 9.49137 418 ft 134 kts 57°
2026-05-04 10:11 40.89027 9.50152 214 ft 134 kts 56°
2026-05-04 10:11 40.89551 9.51159 51 ft 128 kts 57°
2026-05-04 10:11 40.89937 9.51914 50 ft 51 kts 58°
2026-05-04 10:11 40.90065 9.52029 49 ft 14 kts
2026-05-04 10:12 40.90159 9.52016 49 ft 14 kts 306°
2026-05-04 10:12 40.90178 9.51919 49 ft 10 kts 278°
2026-05-04 10:12 40.90198 9.51835 49 ft 7 kts 315°
2026-05-04 10:12 40.90217 9.51788 49 ft 5 kts 274°
2026-05-04 10:13 40.90233 9.51737 49 ft 6 kts 314°
2026-05-04 10:13 40.90257 9.51713 49 ft 2 kts 326°
2026-05-04 10:13 40.90267 9.51703 49 ft 0 kts 325°